Weather History for KJHW - October, 2011

Change the Weather History Date:

Wednesday, October 19, 2011

  Actual Average Record
Temperature  
Mean Temperature 54 °F -  
Max Temperature 64 °F 57 °F 76 °F (1961)
Min Temperature 44 °F 32 °F 19 °F (1974)
Degree Days  
Heating Degree Days 11    
Growing Degree Days 4 (Base 50)    
Moisture  
Dew Point 45 °F    
Average Humidity 76    
Maximum Humidity 82    
Minimum Humidity 59    
Precipitation  
Precipitation 0.00 in - - ()
Sea Level Pressure  
Sea Level Pressure 29.59 in    
Wind  
Wind Speed 10 mph (East)    
Max Wind Speed 17 mph    
Max Gust Speed 28 mph    
Visibility 10 miles    
Events      
Averages and records for this station are not official NWS values.
T = Trace of Precipitation, MM = Missing Value Source: NWS Daily Summary

Daily Weather History Graph

Daily Weather History Graph

Search for Another Location

Airport or City:

Trip Planner

Search our weather history database for the weather conditions in past years. The results will help you decide how hot, cold, wet, or windy it might be!

Date:

Astronomy

Oct. 19, 2011 Rise Set
Actual Time 7:33 AM EDT 6:29 PM EDT
Civil Twilight 7:05 AM EDT 6:57 PM EDT
Nautical Twilight 6:33 AM EDT 7:30 PM EDT
Astronomical Twilight 6:00 AM EDT 8:02 PM EDT
Moon No Moon Rise 2:06 PM EDT (10/19)
Length of Visible Light 11h 52m
Length of Day
10h 55m
Waning Gibbous, 55% of the Moon is Illuminated
Oct 19
Waning Gibbous
Oct 19
Last Quarter
Oct 26
New
Nov 2
First Quarter
Nov 10
Full

Hourly Weather History & Observations

Time (EDT) Temp. Windchill Dew Point Humidity Pressure Visibility Wind Dir Wind Speed Gust Speed Precip Events Conditions
12:15 AM 46.4 °F 42.4 °F 39.2 °F 76% 29.77 in 10.0 mi ENE 8.1 mph - N/A   Overcast
12:35 AM 46.4 °F 42.4 °F 39.2 °F 76% 29.77 in 10.0 mi NNE 8.1 mph - N/A   Overcast
12:55 AM 46.4 °F 40.7 °F 39.2 °F 76% 29.78 in 10.0 mi North 12.7 mph - N/A   Overcast
1:35 AM 46.4 °F 42.4 °F 41.0 °F 81% 29.75 in 10.0 mi NNE 8.1 mph - N/A   Partly Cloudy
1:55 AM 44.6 °F 39.7 °F 39.2 °F 81% 29.74 in 10.0 mi ENE 9.2 mph - N/A   Clear
2:15 AM 46.4 °F 41.1 °F 39.2 °F 76% 29.73 in 10.0 mi East 11.5 mph - N/A   Clear
2:35 AM 46.4 °F 41.5 °F 39.2 °F 76% 29.72 in 10.0 mi ENE 10.4 mph - N/A   Scattered Clouds
3:15 AM 46.4 °F 40.4 °F 39.2 °F 76% 29.69 in 10.0 mi East 13.8 mph - N/A   Mostly Cloudy
3:35 AM 46.4 °F 41.9 °F 39.2 °F 76% 29.68 in 10.0 mi East 9.2 mph - N/A   Partly Cloudy
4:15 AM 46.4 °F 40.4 °F 39.2 °F 76% 29.67 in 10.0 mi East 13.8 mph - N/A   Scattered Clouds
4:35 AM 48.2 °F - 39.2 °F 71% 29.66 in 10.0 mi East 9.2 mph - N/A   Mostly Cloudy
4:55 AM 48.2 °F - 39.2 °F 71% 29.66 in 10.0 mi East 9.2 mph - N/A   Overcast
5:35 AM 46.4 °F 42.4 °F 39.2 °F 76% 29.68 in 10.0 mi NNE 8.1 mph - N/A   Mostly Cloudy
6:15 AM 46.4 °F 41.5 °F 39.2 °F 76% 29.66 in 10.0 mi NNE 10.4 mph - N/A   Clear
6:35 AM 44.6 °F 40.2 °F 39.2 °F 81% 29.66 in 10.0 mi NE 8.1 mph - N/A   Clear
6:55 AM 44.6 °F 40.7 °F 39.2 °F 81% 29.66 in 10.0 mi NE 6.9 mph - N/A   Clear
7:15 AM 44.6 °F 40.2 °F 39.2 °F 81% 29.65 in 10.0 mi NE 8.1 mph - N/A   Clear
7:35 AM 44.6 °F 40.2 °F 39.2 °F 81% 29.65 in 10.0 mi ENE 8.1 mph - N/A   Scattered Clouds
7:55 AM 46.4 °F 41.9 °F 39.2 °F 76% 29.65 in 10.0 mi East 9.2 mph - N/A   Mostly Cloudy
8:15 AM 46.4 °F 41.9 °F 39.2 °F 76% 29.66 in 10.0 mi East 9.2 mph - N/A   Partly Cloudy
8:35 AM 46.4 °F 42.9 °F 41.0 °F 81% 29.66 in 10.0 mi East 6.9 mph - N/A   Mostly Cloudy
8:55 AM 48.2 °F - 41.0 °F 76% 29.66 in 10.0 mi East 8.1 mph - N/A   Overcast
9:15 AM 48.2 °F - 42.8 °F 82% 29.66 in 10.0 mi East 9.2 mph - N/A   Overcast
9:35 AM 48.2 °F - 42.8 °F 82% 29.66 in 10.0 mi East 8.1 mph - N/A   Overcast
9:55 AM 50.0 °F - 42.8 °F 76% 29.65 in 10.0 mi East 8.1 mph - N/A   Overcast
10:15 AM 51.8 °F - 42.8 °F 71% 29.64 in 10.0 mi East 6.9 mph - N/A   Mostly Cloudy
10:35 AM 53.6 °F - 44.6 °F 72% 29.63 in 10.0 mi ESE 8.1 mph - N/A   Partly Cloudy
10:55 AM 53.6 °F - 46.4 °F 77% 29.63 in 10.0 mi ESE 8.1 mph - N/A   Mostly Cloudy
11:15 AM 55.4 °F - 46.4 °F 72% 29.61 in 10.0 mi ESE 12.7 mph 16.1 mph N/A   Mostly Cloudy
11:35 AM 57.2 °F - 48.2 °F 72% 29.60 in 10.0 mi ESE 10.4 mph - N/A   Partly Cloudy
12:15 PM 60.8 °F - 48.2 °F 63% 29.58 in 10.0 mi ESE 11.5 mph - N/A   Clear
12:55 PM 62.6 °F - 50.0 °F 63% 29.55 in 10.0 mi ESE 12.7 mph 18.4 mph N/A   Mostly Cloudy
1:15 PM 64.4 °F - 51.8 °F 64% 29.53 in 10.0 mi ESE 13.8 mph 19.6 mph N/A   Partly Cloudy
1:35 PM 64.4 °F - 50.0 °F 59% 29.53 in 10.0 mi ESE 13.8 mph 19.6 mph N/A   Clear
1:55 PM 62.6 °F - 50.0 °F 63% 29.52 in 10.0 mi East 9.2 mph 17.3 mph N/A   Mostly Cloudy
2:15 PM 62.6 °F - 51.8 °F 68% 29.52 in 10.0 mi ESE 11.5 mph 19.6 mph N/A   Overcast
2:35 PM 60.8 °F - 51.8 °F 72% 29.51 in 10.0 mi East 10.4 mph 18.4 mph N/A   Overcast
2:55 PM 60.8 °F - 51.8 °F 72% 29.50 in 10.0 mi ESE 10.4 mph 16.1 mph N/A   Overcast
3:15 PM 59.0 °F - 51.8 °F 77% 29.49 in 7.0 mi ENE 9.2 mph 16.1 mph N/A   Overcast
3:55 PM 57.2 °F - 51.8 °F 82% 29.46 in 10.0 mi East 9.2 mph - N/A   Overcast
4:15 PM 59.0 °F - 51.8 °F 77% 29.46 in 10.0 mi East 11.5 mph 19.6 mph N/A   Overcast
4:35 PM 59.0 °F - 51.8 °F 77% 29.44 in 10.0 mi East 12.7 mph 18.4 mph N/A   Overcast
4:55 PM 59.0 °F - 51.8 °F 77% 29.43 in 10.0 mi East 12.7 mph 24.2 mph N/A   Overcast
5:15 PM 59.0 °F - 51.8 °F 77% 29.42 in 10.0 mi East 10.4 mph - N/A   Overcast
5:35 PM 59.0 °F - 51.8 °F 77% 29.41 in 10.0 mi East 15.0 mph 21.9 mph N/A   Overcast
5:55 PM 57.2 °F - 51.8 °F 82% 29.40 in 10.0 mi East 17.3 mph 25.3 mph N/A   Overcast
6:15 PM 57.2 °F - 51.8 °F 82% 29.39 in 10.0 mi East 13.8 mph 24.2 mph N/A   Overcast
6:35 PM 57.2 °F - 51.8 °F 82% 29.37 in 10.0 mi East 15.0 mph 21.9 mph N/A   Overcast
6:55 PM 57.2 °F - 51.8 °F 82% 29.37 in 10.0 mi East 16.1 mph 27.6 mph N/A   Overcast
7:15 PM 57.2 °F - 51.8 °F 82% 29.36 in 10.0 mi East 11.5 mph 24.2 mph N/A   Overcast
7:35 PM 57.2 °F - 51.8 °F 82% 29.35 in 10.0 mi East 13.8 mph - N/A   Overcast
7:55 PM 57.2 °F - 51.8 °F 82% 29.33 in 10.0 mi East 16.1 mph 26.5 mph N/A   Overcast
8:15 PM 57.2 °F - 51.8 °F 82% 29.32 in 10.0 mi East 18.4 mph 27.6 mph N/A   Overcast
8:35 PM 57.2 °F - 51.8 °F 82% 29.31 in 10.0 mi East 15.0 mph 23.0 mph N/A   Overcast
8:55 PM 57.2 °F - 51.8 °F 82% 29.30 in 10.0 mi East 16.1 mph 23.0 mph N/A   Overcast
9:15 PM 57.2 °F - 51.8 °F 82% 29.30 in 10.0 mi East 13.8 mph 21.9 mph N/A   Overcast
9:35 PM 57.2 °F - 51.8 °F 82% 29.30 in 10.0 mi East 17.3 mph 23.0 mph N/A   Overcast
9:55 PM 57.2 °F - 51.8 °F 82% 29.29 in 10.0 mi East 12.7 mph - N/A   Overcast
10:15 PM 55.4 °F - 51.8 °F 88% 29.28 in 10.0 mi East 12.7 mph - N/A   Overcast
10:35 PM 55.4 °F - 53.6 °F 94% 29.27 in 10.0 mi East 10.4 mph 18.4 mph N/A   Overcast
11:15 PM 55.4 °F - 53.6 °F 94% 29.24 in 10.0 mi East 15.0 mph 19.6 mph N/A   Overcast
11:35 PM 55.4 °F - 53.6 °F 94% 29.23 in 10.0 mi East 9.2 mph - N/A   Overcast
11:55 PM 55.4 °F - 53.6 °F 94% 29.22 in 10.0 mi East 9.2 mph 18.4 mph N/A   Overcast